Home   Weather   Aalborg   Past weeks

Flag for Denmark Past Weather in Aalborg, Denmark — Yesterday and Last 2 Weeks

Now
46 °F

Fog.


Feels Like: 46 °F
Forecast: 45 / 62 °F
Wind: 2 mph from West

Location: Aalborg Airport

Current Time: May 23, 2017 at 1:34:39 am

Latest Report: May 23, 2017 at 12:50 am


Visibility: 0 mi

Pressure: 30.04 "Hg

Humidity: 100%

Dew Point: 46 °F

Location of AalborgLocation

Past Weather in Aalborg — Graph

°F

Aalborg Temperature Yesterday

Maximum temperature yesterday: 63 °F (at 2:50 pm)
Minimum temperature yesterday: 48 °F (at 2:20 am)
Average temperature yesterday: 54 °F

High & Low Weather Summary for the Past Weeks

 TemperatureHumidityPressure
High77 °F (May 18, 2:20 pm)100% (May 11, 5:20 am)30.36 "Hg (May 11, 5:20 am)
Low39 °F (May 8, 10:20 pm)30% (May 8, 5:20 pm)29.65 "Hg (May 10, 6:10 pm)
Average54 °F80%30.00 "Hg
* Reported May 8 12:20 am — May 23 12:22 am, Aalborg. Weather by CustomWeather, © 2017

Note: Actual official high and low records may vary slightly from our data, if they occured in-between our weather recording intervals... More about our weather records

Advertising

Aalborg Weather History for the Previous 24 Hours

Scroll right to see more
 ConditionsComfort  
Time TempWeatherWind HumidityBarometerVisibility
12:22 am
Tue, May 23
46 °FClear.1 mph93%30.04 "Hg4 mi
11:50 pm
Mon, May 22
48 °FClear.No wind94%30.04 "Hg4 mi
11:20 pm48 °FPassing clouds.No wind94%30.04 "HgN/A
10:50 pm50 °FPassing clouds.No wind88%30.04 "HgN/A
10:20 pm50 °FPassing clouds.3 mph88%30.04 "HgN/A
9:50 pm52 °FPassing clouds.No wind82%30.07 "HgN/A
9:20 pm52 °FCool.2 mph82%30.07 "HgN/A
8:50 pm54 °FPartly sunny.5 mph77%30.07 "HgN/A
8:20 pm57 °FPartly sunny.6 mph63%30.07 "HgN/A
7:50 pm57 °FScattered clouds.6 mph63%30.07 "HgN/A
7:20 pm59 °FPartly sunny.6 mph63%30.07 "HgN/A
6:50 pm59 °FScattered clouds.7 mph63%30.09 "HgN/A
6:20 pm59 °FScattered clouds.6 mph59%30.09 "HgN/A
5:50 pm61 °FPassing clouds.7 mph55%30.09 "HgN/A
5:20 pm61 °FScattered clouds.8 mph59%30.09 "HgN/A
4:50 pm61 °FRefreshingly cool.7 mph59%30.12 "HgN/A
4:20 pm63 °FBroken clouds.10 mph59%30.12 "HgN/A
3:50 pm63 °FScattered clouds.9 mph64%30.12 "HgN/A
3:20 pm63 °FPassing clouds.13 mph59%30.12 "HgN/A
2:50 pm63 °FMild.10 mph64%30.15 "HgN/A
2:20 pm61 °FCool.12 mph68%30.15 "HgN/A
1:50 pm61 °FPassing clouds.13 mph68%30.15 "HgN/A
1:20 pm59 °FPassing clouds.14 mph72%30.15 "HgN/A
12:50 pm59 °FPassing clouds.13 mph72%30.18 "HgN/A
12:20 pm59 °FPassing clouds.14 mph72%30.18 "HgN/A
11:50 am57 °FPassing clouds.12 mph72%30.18 "HgN/A
11:20 am57 °FScattered clouds.12 mph77%30.18 "HgN/A
10:50 am55 °FScattered clouds.8 mph77%30.18 "HgN/A
10:20 am54 °FScattered clouds.7 mph77%30.18 "HgN/A
9:50 am52 °FPartly sunny.9 mph88%30.21 "HgN/A
9:20 am52 °FPartly sunny.8 mph88%30.21 "HgN/A
8:50 am52 °FMore clouds than sun.7 mph88%30.21 "HgN/A
8:20 am50 °FPartly sunny.6 mph94%30.21 "HgN/A
7:50 am50 °FPartly sunny.7 mph94%30.21 "Hg5 mi
7:20 am48 °FBroken clouds.6 mph94%30.21 "Hg4 mi
7:06 am48 °FMostly cloudy.6 mph94%30.21 "Hg4 mi
6:51 am48 °FLow clouds.6 mph94%30.21 "Hg4 mi
6:20 am48 °FLow clouds.7 mph94%30.21 "Hg4 mi
5:58 am48 °FMostly cloudy.9 mph94%30.21 "Hg4 mi
5:39 am50 °FPartly sunny.7 mph94%30.21 "HgN/A
5:20 am50 °FMostly cloudy.7 mph94%30.21 "Hg6 mi
4:50 am50 °FMostly cloudy.9 mph94%30.21 "Hg6 mi
4:20 am50 °FMostly cloudy.9 mph94%30.21 "Hg5 mi
3:50 am48 °FFog.7 mph100%30.21 "Hg2 mi
3:20 am48 °FFog.8 mph94%30.21 "Hg0 mi
3:09 am48 °FFog.7 mph94%30.21 "Hg2 mi
2:20 am48 °FPassing clouds.6 mph94%30.24 "Hg4 mi
1:50 am50 °FCool.5 mph94%30.24 "Hg6 mi
1:20 am50 °FCool.7 mph94%30.24 "HgN/A
Weather by CustomWeather, © 2017

See weather overviewHow to use our weather pages